Regional Weather Roundup
Issued by NWS

Home | Current Version | Previous Version | Text Only | Print | Product List | Glossary Off
Versions: 1 2 3 4 5 6 7 8 9 10 11 12 13 14 15 16 17 18 19 20 21 22 23 24 25 26 27 28 29 30 31 32 33 34 35 36 37 38 39 40 41 42 43 44 45 46 47 48 49 50

000
ASUS43 KDTX 301410
RWRMI
MICHIGAN HOURLY REGIONAL WEATHER ROUNDUP
NATIONAL WEATHER SERVICE DETROIT/PONTIAC MI
900 AM EST FRI JAN 30 2015

NOTE: "FAIR" INDICATES FEW OR NO CLOUDS BELOW 12,000 FEET WITH NO
SIGNIFICANT WEATHER AND/OR OBSTRUCTION TO VISIBILITY.

MIZ047>049-052>055-059>063-066>070-074>076-081>083-301500-
SOUTHEAST LOWER MICHIGAN

CITY           SKY/WX    TMP DP  RH WIND       PRES   REMARKS
ADRIAN         CLOUDY    19   8  62 N16       30.40R
ALMA           CLOUDY    16   7  67 N8G17     30.43R
ANN ARBOR      SUNNY     16   5  62 NW17G26   30.38R
BAD AXE        CLOUDY    10   4  77 NW20      30.37R WCI  -8
DETROIT CITY   MOSUNNY   16   2  54 NW15G25   30.38R
DETROIT        CLOUDY    19  14  81 NW9       30.38R
FLINT          MOCLDY    14   3  61 N14       30.41R WCI  -1
GROSSE ILE     CLOUDY    18   7  62 N18G24    30.38R
HILLSDALE      CLOUDY    19   8  62 N12G21    30.37R
HOWELL         MOCLDY    13   4  66 N9G21     30.39R

CITY           SKY/WX    TMP DP  RH WIND       PRES   REMARKS
JACKSON        CLOUDY    17   7  64 N13G22    30.39R
LAMBERTVILLE   SUNNY     19   9  63 N13G21    30.40R
LANSING        CLOUDY    16   6  65 N17G28    30.43R
LAPEER         NOT AVBL
MASON          CLOUDY    16   7  67 N14       30.41R
MONROE         SUNNY     18   7  62 N10       30.38R
MT. CLEMENS    PTSUNNY   14   4  65 NW16      30.35R WCI  -2
PONTIAC        PTSUNNY   12   4  70 N15       30.36R WCI  -4
PORT HOPE        N/A     15  11  83 NW14G21   30.35R
PORT HURON     CLOUDY    12   3  67 NW16      30.35R WCI  -4
TRI CITIES       N/A     13   2  61 N8        30.44R
YPSILANTI      MOSUNNY   18   5  57 N15       30.38R
$$
MIZ043>046-050>051-056>058-064>065-071>073-077>080-301500-
SOUTHWEST LOWER MICHIGAN

CITY           SKY/WX    TMP DP  RH WIND       PRES   REMARKS
BATTLE CREEK   CLOUDY    20   6  55 NW13      30.41R
BENTON HARBOR  LGT SNOW  23  16  74 VRB5      30.46R
BIG RAPIDS     CLOUDY    17  10  74 N6        30.40R
COLDWATER      CLOUDY    19   7  59 NW12G18   30.40R
HOLLAND        CLOUDY    21   9  59 VRB7      30.46S
GRAND RAPIDS   CLOUDY    20   7  57 N13       30.44R
KALAMAZOO      CLOUDY    20   9  62 N17       30.43R
MARSHALL       CLOUDY    18   7  61 N13G21    30.40R
MUSKEGON       FLURRIES  20  10  65 N9        30.47R
$$
MIZ016>042-301500-
NORTHERN LOWER MICHIGAN

CITY           SKY/WX    TMP DP  RH WIND       PRES   REMARKS
ALPENA         LGT SNOW   5   1  83 N14       30.43R FOG     WCI -12
BEAVER ISLAND  CLOUDY    10   5  80 CALM      30.45R
BELLAIRE       PTCLDY     9   1  72 NE5       30.46R
CADILLAC       FLURRIES  12   7  82 NE3       30.36R
CHARLEVOIX     CLOUDY     8   2  78 E6        30.48R
FRANKFORT      CLOUDY    18   9  69 N7        30.45R
GAYLORD        CLOUDY     4  -1  80 NE8       30.37R
GRAYLING       CLOUDY     8   1  74 N5        30.40R
HARBOR SPRINGS CLOUDY     5  -1  74 CALM      30.45R
HOUGHTON LAKE  MOCLDY     9   0  67 N10       30.39R WCI  -5
MANISTEE       CLOUDY    19   7  58 N9        30.45R
OSCODA         CLOUDY     8  -1  69 N13       30.41R WCI  -8
PELLSTON       CLOUDY     4  -3  73 NE8       30.46R
TRAVERSE CITY  CLOUDY    16   9  74 NE12G20   30.42R
$$
MIZ007>008-015-301500-
EASTERN UPPER MICHIGAN

CITY           SKY/WX    TMP DP  RH WIND       PRES   REMARKS
KINROSS        CLOUDY    -2  -9  71 CALM      30.45R
MACKINAC ISLAN MOCLDY     1  -7  70 N9        30.45R
NEWBERRY       LGT SNOW   3   1  89 CALM      30.42R
S. S. MARIE    PTCLDY    -3 -13  62 NE6       30.44R
$$
MIZ004>006-011>014-085-301500-
CENTRAL UPPER MICHIGAN

CITY           SKY/WX    TMP DP  RH WIND       PRES   REMARKS
MANISTIQUE     CLOUDY    13  10  90 CALM      30.44R
ESCANABA       CLOUDY    10   0  61 NW10      30.48R WCI  -3
MENOMINEE      CLOUDY    12   1  62 N7        30.49S
SAWYER-GWINN   CLOUDY     9   1  72 NW6       30.42R
$$
MIZ001>003-009>011-084-301500-
WESTERN UPPER MICHIGAN

CITY           SKY/WX    TMP DP  RH WIND       PRES   REMARKS
IRON MOUNTAIN  CLOUDY     8  -1  66 NW5       30.43S
HOUGHTON       LGT SNOW   9   2  73 N5        30.42S
COPPER HARBOR    N/A     12   3  67 N10G23    30.46R WCI  -1
IRONWOOD       CLOUDY    10   3  72 W6        30.41S
$$

ABBREVIATIONS USED IN REMARKS
   TC - TEMPERATURE IN CELSIUS
  WCI - WIND CHILL INDEX
   HX - HEAT INDEX
  VSB - VISIBILITY




USA.gov is the U.S. government's official web portal to all federal, state and local government web resources and services.